Location: Mexico
(19.4000°N, 99.1500°W)
Time: 09:42:02
(UTC-06:00)

ISS - Pass Details

Date: 20 January 2018
Orbit: 402 x 407 km, 51.6° (Epoch: 23 January)

Event Time Altitude Azimuth Distance (km) Brightness Sun altitude
Exits shadow 06:39:43 11° 276° (W) 1,423 -1.7 -8.3°
Maximum altitude 06:41:47 17° 235° (SW) 1,117 -1.9 -7.9°
Drops below altitude 10° 06:43:58 10° 193° (SSW) 1,453 -0.9 -7.4°
Sets 06:46:32 0° 172° (S) 2,310 0.4 -6.8°
